TimeEDT,TemperatureF,Dew PointF,Humidity,Sea Level PressureIn,VisibilityMPH,Wind Direction,Wind SpeedMPH,Gust SpeedMPH,PrecipitationIn,Events,Conditions,WindDirDegrees,DateUTC
12:54 AM,64.0,59.0,84,29.98,10.0,West,9.2,-,N/A,,Clear,280,2013-07-29 04:54:00
1:54 AM,63.0,57.9,84,29.99,10.0,Calm,Calm,-,N/A,,Clear,0,2013-07-29 05:54:00
2:54 AM,60.1,57.0,90,30.01,10.0,Calm,Calm,-,N/A,,Clear,0,2013-07-29 06:54:00
3:54 AM,57.9,55.0,90,30.03,8.0,NW,5.8,-,N/A,,Clear,320,2013-07-29 07:54:00
4:54 AM,55.9,54.0,93,30.04,6.0,NW,4.6,-,N/A,,Clear,320,2013-07-29 08:54:00
5:25 AM,57.2,53.6,88,30.04,4.0,Calm,Calm,-,N/A,,Scattered Clouds,0,2013-07-29 09:25:00
5:33 AM,57.2,55.4,94,30.04,2.5,Calm,Calm,-,N/A,,Mostly Cloudy,0,2013-07-29 09:33:00
5:43 AM,55.4,53.6,94,30.05,1.0,Calm,Calm,-,N/A,,Mostly Cloudy,0,2013-07-29 09:43:00
5:54 AM,55.9,54.0,93,30.04,2.5,Calm,Calm,-,N/A,,Mostly Cloudy,0,2013-07-29 09:54:00
6:01 AM,55.4,53.6,94,30.05,4.0,Calm,Calm,-,N/A,,Scattered Clouds,0,2013-07-29 10:01:00
6:26 AM,55.4,53.6,94,30.05,1.8,Calm,Calm,-,N/A,,Clear,0,2013-07-29 10:26:00
6:41 AM,55.4,53.6,94,30.06,2.5,Calm,Calm,-,N/A,,Clear,0,2013-07-29 10:41:00
6:49 AM,55.4,53.6,94,30.06,3.0,Calm,Calm,-,N/A,,Clear,0,2013-07-29 10:49:00
6:54 AM,55.9,54.0,93,30.05,3.0,Calm,Calm,-,N/A,,Clear,0,2013-07-29 10:54:00
7:02 AM,57.2,55.4,94,30.06,2.5,Calm,Calm,-,N/A,,Clear,0,2013-07-29 11:02:00
7:09 AM,57.2,55.4,94,30.06,4.0,Calm,Calm,-,N/A,,Clear,0,2013-07-29 11:09:00
7:54 AM,61.0,55.9,83,30.07,10.0,West,3.5,-,N/A,,Clear,280,2013-07-29 11:54:00
8:54 AM,63.0,55.9,78,30.07,10.0,West,4.6,-,N/A,,Clear,260,2013-07-29 12:54:00
9:54 AM,68.0,55.0,63,30.07,10.0,Variable,3.5,-,N/A,,Clear,0,2013-07-29 13:54:00
10:54 AM,72.0,51.1,48,30.07,10.0,WSW,11.5,-,N/A,,Partly Cloudy,250,2013-07-29 14:54:00
11:54 AM,75.0,46.9,37,30.07,10.0,SW,8.1,-,N/A,,Scattered Clouds,220,2013-07-29 15:54:00
12:54 PM,72.0,48.9,44,30.07,10.0,WSW,6.9,-,N/A,,Mostly Cloudy,250,2013-07-29 16:54:00
1:54 PM,75.0,50.0,41,30.07,10.0,WSW,6.9,-,N/A,,Scattered Clouds,240,2013-07-29 17:54:00
2:54 PM,75.0,48.9,40,30.07,10.0,West,11.5,-,N/A,,Scattered Clouds,270,2013-07-29 18:54:00
3:54 PM,77.0,51.1,40,30.07,10.0,WSW,11.5,-,N/A,,Mostly Cloudy,250,2013-07-29 19:54:00
4:54 PM,77.0,52.0,42,30.06,10.0,SW,10.4,-,N/A,,Scattered Clouds,230,2013-07-29 20:54:00
5:54 PM,75.9,48.9,38,30.06,10.0,West,12.7,-,N/A,,Clear,260,2013-07-29 21:54:00
6:54 PM,75.0,51.1,43,30.07,10.0,WSW,9.2,-,N/A,,Clear,250,2013-07-29 22:54:00
7:54 PM,70.0,53.1,55,30.08,10.0,SSW,5.8,-,N/A,,Clear,210,2013-07-29 23:54:00
8:54 PM,68.0,53.1,59,30.10,10.0,West,4.6,-,N/A,,Scattered Clouds,270,2013-07-30 00:54:00
9:54 PM,64.9,55.0,70,30.12,10.0,NNW,4.6,-,N/A,,Clear,340,2013-07-30 01:54:00
10:54 PM,62.1,55.0,78,30.13,10.0,Calm,Calm,-,N/A,,Clear,0,2013-07-30 02:54:00
11:54 PM,60.1,55.0,83,30.14,10.0,Calm,Calm,-,N/A,,Clear,0,2013-07-30 03:54:00